Wind_Speed
24 25 24 22 12 16 24 23 20 9 8 11 13 12 7 9 3 2 3 4 0 2 6 12 15 16 16 19 19 18 17 17 16 16 15 14 13 12 10 8 6 5 3 3 2 2 2 3 3
26 23 24 16 21 26 28 24 19 17 13 10 10 13 12 7 8 9 9 6 5 5 8 13 15 15 17 19 19 18 18 18 17 16 15 14 12 11 10 8 6 4 3 2 0 1 2 3 3
26 24 19 18 29 37 28 23 24 16 15 16 6 7 10 14 9 12 11 9 3 7 10 14 15 15 17 19 19 17 17 17 17 16 15 14 13 11 10 8 6 5 3 2 2 3 4 5 5
26 26 25 27 30 34 31 22 19 20 15 18 12 6 13 13 11 10 11 10 6 5 14 15 15 16 16 19 19 18 17 17 16 16 15 14 13 11 10 8 7 6 5 4 5 6 6 7 7
28 20 27 30 35 31 28 26 16 20 20 16 18 10 10 14 11 10 9 3 1 4 13 16 16 15 16 17 18 17 17 16 16 15 15 14 13 12 10 9 8 7 6 6 7 8 9 9 9
28 26 26 36 33 32 31 27 22 19 21 15 17 17 13 14 10 10 7 8 4 3 11 15 18 17 17 17 17 16 16 16 15 15 14 14 14 12 11 10 8 8 8 9 10 10 10 11 11
29 28 35 31 32 31 34 24 27 25 23 21 14 12 17 19 16 13 11 12 10 5 11 14 19 20 19 19 19 18 16 15 15 15 15 15 14 12 11 9 9 10 11 12 12 13 13 13 14
27 26 33 37 33 32 28 27 27 26 25 21 23 14 14 23 17 14 14 13 11 10 12 16 18 20 19 20 20 18 17 16 16 16 15 14 13 12 11 11 11 11 12 12 13 14 15 15 16
32 31 35 36 34 26 24 26 26 25 25 20 20 16 23 18 14 16 17 16 12 14 13 15 19 21 21 20 19 19 19 17 16 15 14 13 12 12 12 11 11 12 12 13 15 15 16 16 17
28 33 34 27 30 29 24 23 26 27 28 26 26 25 32 19 11 13 12 13 10 14 15 17 20 21 21 21 19 19 18 17 16 14 13 13 13 13 12 13 13 14 14 15 16 17 17 18 18
24 34 28 28 23 22 24 23 22 25 26 29 27 24 31 23 16 14 12 10 7 9 14 17 20 22 23 20 20 18 17 16 15 14 14 15 15 14 14 15 15 16 16 17 18 19 20 21 20
26 26 20 28 21 22 24 20 27 25 19 20 32 29 34 27 23 21 17 14 15 13 14 16 19 19 19 19 18 17 17 16 17 16 16 16 16 16 17 17 17 18 18 20 20 21 21 22 21
27 23 23 19 23 21 20 27 22 25 28 22 33 35 36 28 24 23 21 17 15 13 14 15 17 17 16 17 17 16 15 15 16 17 17 17 17 17 18 19 19 19 20 21 21 21 20 21 20
15 26 23 25 25 22 23 25 27 29 32 31 31 25 27 29 25 26 23 18 16 15 16 18 19 19 17 16 15 15 16 16 17 17 17 17 17 17 18 19 19 20 21 21 21 21 20 19 19
19 17 23 26 25 23 19 28 40 30 22 31 38 30 22 23 28 23 19 16 16 17 18 19 19 19 17 16 17 17 17 17 17 18 17 16 17 17 19 19 21 21 21 18 18 18 19 18 19
15 18 23 25 28 27 25 33 27 31 29 31 26 26 29 28 29 23 20 18 19 21 22 21 21 17 16 18 18 17 17 16 17 17 17 18 19 19 20 18 18 19 20 17 17 17 15 15 22
12 17 23 22 24 29 29 18 29 24 31 30 27 27 29 34 28 25 23 21 21 23 23 22 20 17 18 17 16 16 16 17 16 17 17 18 17 19 19 18 18 13 18 25 21 21 22 17 21
11 15 11 21 23 26 29 32 14 18 28 34 25 27 23 34 27 28 28 26 25 24 23 21 18 17 16 15 14 14 14 15 16 15 15 18 18 20 21 20 19 22 23 32 47 27 33 20 29
7 8 10 11 13 20 27 29 28 25 15 25 29 26 24 27 34 31 32 27 26 23 20 19 18 16 14 13 11 12 15 13 12 13 15 16 14 15 16 21 22 24 36 35 43 23 21 23 29
11 11 12 12 16 13 16 26 28 28 29 26 25 26 28 23 36 34 34 29 26 22 21 19 18 16 14 11 11 11 9 8 9 11 13 14 11 15 22 33 31 24 23 16 20 19 20 26 31
12 12 10 10 7 16 12 21 29 32 27 28 27 25 25 29 39 37 36 30 27 25 22 19 17 14 14 12 12 10 10 12 13 15 18 13 13 22 26 27 33 38 27 29 26 22 23 26 29
13 11 11 11 10 17 16 10 32 31 33 31 32 30 28 29 36 36 37 32 27 25 21 19 15 12 12 12 10 9 8 10 12 18 20 22 21 25 21 21 24 16 34 35 25 22 22 24 26
9 7 8 10 12 13 15 10 19 31 33 35 36 32 31 32 35 37 39 35 37 30 20 17 12 8 10 10 7 5 3 3 5 9 12 16 16 9 13 15 16 14 22 23 16 17 19 19 20
6 7 7 8 11 16 21 20 18 27 40 39 41 36 35 36 33 33 41 38 36 31 21 17 5 11 11 8 7 10 10 9 7 3 3 4 10 11 11 14 11 13 15 13 13 14 15 19 21
11 11 8 9 10 13 23 18 23 25 35 42 45 40 37 42 33 40 44 39 35 29 26 21 21 16 13 13 16 15 12 10 8 4 2 3 5 8 12 9 9 11 12 12 13 15 17 18 15
17 17 9 8 12 15 12 17 20 23 21 36 38 39 35 36 32 39 40 36 33 29 24 17 17 16 18 19 16 13 11 8 6 4 2 2 6 7 6 5 7 8 9 11 13 14 13 12 11
16 25 13 11 18 12 23 22 18 24 24 33 39 40 37 36 38 43 41 37 33 28 20 16 16 19 23 18 13 11 8 7 5 3 1 2 3 4 4 4 6 8 9 11 10 9 10 8 8
14 17 16 13 8 14 16 27 21 27 24 33 41 41 41 43 43 45 41 37 35 27 20 19 20 26 19 13 12 10 8 5 2 1 1 2 1 3 4 7 8 10 9 8 8 8 5 6 7
22 18 22 18 21 11 16 23 28 21 27 37 42 42 45 48 53 48 44 40 34 27 21 17 24 24 19 13 12 9 5 2 1 1 1 2 1 3 6 7 8 6 6 7 6 3 4 5 7
25 23 27 17 20 27 24 16 25 23 23 40 41 42 44 49 56 51 46 41 35 29 25 24 29 25 19 14 11 6 2 2 3 3 3 1 1 3 6 6 4 6 7 5 3 2 2 5 8
Wind_Direction
235 232 234 229 224 230 235 229 220 222 224 221 226 215 215 197 191 235 218 188 310 222 172 177 177 169 159 148 144 147 153 159 159 159 158 157 159 158 159 162 159 154 148 129 95 59 27 11 359
233 225 223 215 223 225 231 223 229 220 220 212 219 219 219 240 237 257 253 269 261 165 160 172 175 172 159 153 149 155 160 163 163 165 164 162 166 165 168 171 169 169 174 165 127 320 317 316 311
229 217 209 220 230 230 229 224 224 223 227 216 221 206 222 231 236 243 248 248 240 186 167 169 173 174 164 156 153 160 164 167 167 169 169 168 174 175 175 175 185 195 204 230 263 279 293 303 314
225 216 212 217 226 229 225 229 227 219 218 208 224 255 247 243 246 217 225 239 266 214 167 168 173 174 170 162 157 164 167 171 172 173 174 177 182 185 183 188 201 213 221 245 268 285 293 298 304
220 213 222 229 231 229 226 221 217 217 223 232 232 229 238 240 229 211 214 206 258 213 170 169 174 176 173 169 164 169 170 174 176 177 180 186 191 194 197 205 217 235 253 268 277 282 290 297 301
213 212 226 226 232 228 229 219 225 222 219 222 234 228 229 224 218 221 241 216 290 248 178 179 175 180 175 172 172 174 174 178 181 183 188 194 200 204 210 219 234 252 265 271 274 281 288 296 301
209 221 227 229 231 229 226 225 222 219 215 216 221 222 242 227 240 244 245 239 272 251 191 192 182 181 178 176 178 179 180 182 186 191 196 202 209 214 222 235 249 260 269 281 292 299 303 305 309
220 224 234 229 228 232 231 220 221 216 217 217 218 230 253 231 247 250 239 243 245 204 197 192 193 185 185 182 183 182 184 188 194 199 205 210 217 227 237 245 254 267 276 284 291 295 300 305 306
206 220 227 225 224 227 226 221 220 219 223 219 223 218 231 236 248 246 234 233 225 203 196 198 199 190 189 185 187 188 190 193 200 206 212 221 230 240 248 258 266 271 277 282 286 291 295 298 300
212 223 226 225 227 225 228 225 220 223 222 221 211 235 234 225 227 211 221 236 242 222 196 198 202 199 193 189 190 196 197 201 205 211 219 229 237 247 255 260 264 270 275 280 284 287 291 292 296
228 224 230 227 214 218 218 225 204 215 220 221 215 231 234 221 216 205 207 214 220 231 210 205 205 199 198 192 194 198 203 208 213 219 225 232 239 246 253 259 265 271 276 281 285 290 293 295 296
234 229 219 223 226 221 219 216 220 213 205 207 209 206 229 217 221 223 229 226 222 241 209 207 206 205 202 197 199 201 207 211 218 223 230 237 243 249 254 261 269 275 281 286 290 293 296 297 298
231 221 231 217 217 225 220 218 220 218 199 209 211 215 228 222 220 215 216 217 216 221 205 203 203 203 202 199 201 205 212 220 226 231 235 241 246 252 258 265 271 278 282 287 291 295 299 300 297
236 230 235 223 230 232 231 226 220 216 205 211 210 218 226 226 219 203 207 205 201 203 193 197 195 192 193 197 197 203 211 220 228 236 242 249 255 261 265 267 272 276 281 287 296 306 305 304 296
223 225 230 225 224 224 232 232 220 207 206 207 209 216 210 212 206 191 186 192 195 198 189 192 193 192 188 192 196 203 211 221 232 240 248 254 257 261 267 273 278 282 287 303 312 310 310 302 307
224 231 230 232 225 226 223 235 229 220 222 213 211 216 217 203 199 189 185 187 193 187 185 187 192 187 189 197 202 207 216 225 233 240 245 251 258 265 266 273 285 297 301 304 302 300 302 304 296
218 226 226 225 225 219 222 239 224 218 221 223 223 218 221 209 200 192 183 183 184 182 182 185 191 183 197 198 204 215 221 231 242 251 256 264 270 271 275 275 271 277 304 308 300 300 292 305 291
219 225 220 222 220 221 224 231 209 220 225 222 221 215 214 215 199 185 179 180 179 181 179 182 186 187 196 202 208 220 231 241 251 264 273 274 274 279 282 285 287 289 292 281 277 320 262 286 299
227 229 228 215 209 221 229 229 230 219 230 214 216 211 209 218 202 173 175 177 175 171 169 168 175 181 190 201 215 226 236 254 269 282 283 286 294 302 300 298 290 295 316 282 273 280 286 301 302
231 239 240 242 226 240 232 229 226 222 225 216 214 211 209 205 196 177 174 174 173 162 160 159 164 175 185 196 216 235 257 274 279 284 271 264 273 289 295 292 273 267 300 305 283 283 292 292 298
237 238 239 240 211 237 247 242 227 224 222 219 215 211 207 202 189 180 177 175 176 165 160 160 167 178 186 191 214 237 262 274 278 272 265 252 284 284 295 305 282 259 274 291 284 292 296 296 298
251 246 242 244 244 241 213 250 223 216 217 214 211 208 200 194 190 184 182 178 170 171 166 165 164 165 190 207 228 271 284 268 253 262 261 267 287 290 286 309 314 274 256 273 284 292 296 296 297
243 251 237 237 241 246 219 241 233 207 207 207 206 203 197 194 193 187 184 184 180 179 173 172 159 200 203 209 230 151 132 191 230 260 289 286 276 270 279 291 270 264 262 273 291 297 297 301 306
219 231 243 232 230 237 229 221 227 198 201 200 202 200 197 195 190 186 184 185 179 180 182 192 203 233 203 174 178 151 135 119 118 119 286 268 279 288 286 271 283 282 282 304 312 310 306 311 310
198 200 197 209 206 239 209 221 233 208 204 200 197 196 196 198 187 179 188 183 182 182 186 194 202 201 175 160 146 132 126 115 104 121 169 242 273 269 260 284 301 305 311 312 312 305 308 307 314
214 205 239 199 210 226 205 214 224 217 206 201 200 195 192 188 179 180 181 179 176 180 178 177 181 169 158 149 132 128 113 96 94 86 31 278 252 269 299 311 315 321 319 307 300 305 306 321 333
219 219 222 291 271 278 194 231 237 218 210 196 195 192 190 181 183 180 176 176 176 175 177 175 168 162 153 137 131 123 112 89 80 84 297 298 352 35 37 16 348 323 311 306 312 323 331 342 355
225 211 208 223 259 221 215 224 223 210 205 192 190 189 187 183 185 176 174 174 172 174 174 164 165 165 155 149 144 127 111 82 101 46 347 344 339 342 358 346 330 321 321 325 327 337 350 5 6
202 212 215 236 240 260 228 221 216 209 202 187 186 184 189 190 180 176 174 170 170 171 167 171 166 167 162 147 141 132 116 83 82 2 357 319 320 341 340 328 323 325 329 331 346 3 29 15 359
220 220 211 220 210 232 267 269 211 196 193 183 183 181 190 191 177 177 173 171 171 170 166 159 155 156 158 150 152 139 97 21 319 310 273 270 297 319 319 319 325 340 344 348 2 64 35 359 2
Height
3145 3148 3152 3156 3165 3158 3154 3156 3158 3159 3160 3159 3159 3162 3165 3163 3166 3168 3163 3163 3165 3165 3167 3168 3171 3172 3175 3175 3176 3179 3182 3186 3187 3190 3191 3193 3195 3196 3197 3198 3199 3200 3200 3200 3199 3199 3199 3199 3198
3140 3145 3148 3153 3154 3149 3148 3153 3154 3157 3158 3157 3157 3158 3161 3163 3162 3162 3162 3162 3164 3164 3165 3168 3170 3173 3174 3176 3177 3181 3183 3185 3187 3190 3192 3193 3195 3197 3198 3200 3200 3201 3201 3200 3200 3200 3200 3199 3198
3136 3140 3147 3146 3144 3140 3145 3148 3152 3155 3153 3155 3158 3158 3160 3159 3160 3160 3161 3162 3163 3162 3164 3166 3169 3172 3174 3175 3177 3181 3184 3186 3188 3191 3193 3194 3196 3198 3200 3201 3201 3201 3201 3201 3201 3200 3200 3200 3199
3132 3136 3138 3136 3133 3138 3143 3147 3149 3152 3152 3153 3155 3158 3156 3157 3157 3158 3159 3161 3162 3162 3163 3165 3168 3171 3174 3175 3177 3181 3184 3187 3189 3191 3193 3196 3197 3199 3200 3200 3200 3201 3201 3201 3201 3201 3200 3199 3198
3126 3131 3132 3128 3129 3135 3138 3143 3145 3148 3151 3154 3152 3157 3155 3154 3155 3156 3158 3159 3161 3161 3161 3164 3167 3170 3174 3176 3178 3182 3184 3187 3190 3192 3194 3197 3198 3199 3200 3200 3200 3200 3201 3201 3201 3200 3200 3199 3198
3119 3124 3122 3121 3124 3129 3132 3135 3139 3144 3149 3151 3150 3152 3153 3152 3153 3154 3156 3157 3159 3161 3161 3163 3165 3170 3173 3176 3179 3182 3185 3188 3190 3192 3195 3197 3198 3199 3199 3200 3200 3201 3201 3200 3200 3199 3199 3198 3197
3111 3116 3114 3118 3121 3122 3126 3131 3134 3140 3144 3147 3148 3150 3149 3150 3151 3152 3154 3156 3157 3159 3161 3163 3165 3168 3172 3175 3179 3182 3185 3187 3190 3192 3194 3196 3197 3198 3200 3201 3201 3201 3200 3200 3200 3200 3199 3198 3197
3107 3112 3111 3111 3114 3117 3123 3126 3131 3134 3140 3144 3142 3148 3151 3146 3148 3149 3151 3153 3155 3158 3161 3162 3166 3168 3171 3174 3178 3181 3184 3187 3189 3191 3194 3196 3197 3198 3200 3200 3200 3200 3200 3200 3199 3198 3197 3196 3195
3099 3104 3100 3104 3111 3117 3120 3120 3125 3131 3134 3138 3140 3143 3140 3144 3145 3147 3149 3151 3153 3155 3158 3162 3165 3167 3170 3173 3177 3180 3182 3185 3188 3190 3193 3195 3197 3198 3198 3199 3200 3200 3199 3199 3198 3197 3196 3195 3193
3093 3095 3097 3105 3109 3111 3115 3116 3121 3125 3127 3132 3136 3136 3136 3141 3143 3145 3147 3150 3152 3154 3156 3160 3164 3168 3169 3173 3175 3179 3182 3184 3187 3190 3193 3195 3195 3196 3197 3198 3198 3198 3197 3197 3196 3195 3194 3192 3191
3089 3089 3097 3100 3101 3106 3110 3112 3117 3119 3124 3129 3134 3137 3133 3138 3142 3144 3146 3148 3152 3154 3156 3158 3163 3167 3170 3171 3175 3178 3181 3184 3187 3190 3191 3192 3193 3194 3195 3195 3196 3196 3195 3195 3194 3193 3192 3190 3188
3085 3087 3090 3094 3097 3099 3102 3108 3110 3112 3123 3126 3123 3129 3127 3134 3138 3141 3144 3147 3150 3153 3155 3158 3162 3167 3169 3172 3174 3177 3180 3183 3185 3187 3189 3190 3191 3192 3192 3193 3194 3193 3193 3193 3192 3190 3189 3187 3185
3079 3084 3085 3087 3091 3092 3097 3098 3104 3108 3114 3117 3119 3122 3123 3129 3134 3137 3140 3143 3148 3152 3153 3157 3162 3166 3168 3171 3174 3177 3180 3182 3184 3185 3186 3187 3188 3189 3190 3191 3191 3190 3190 3189 3188 3186 3185 3184 3183
3077 3079 3081 3083 3086 3088 3090 3094 3099 3101 3108 3111 3114 3118 3121 3125 3130 3133 3136 3141 3146 3149 3151 3156 3160 3163 3166 3169 3172 3175 3177 3180 3181 3183 3184 3186 3186 3188 3188 3187 3187 3187 3186 3185 3186 3185 3183 3181 3180
3072 3073 3075 3076 3080 3083 3086 3087 3085 3098 3106 3106 3109 3113 3116 3121 3125 3130 3134 3138 3143 3147 3149 3154 3158 3161 3163 3167 3169 3172 3175 3176 3178 3180 3182 3183 3184 3184 3184 3185 3184 3184 3183 3183 3183 3182 3180 3179 3177
3068 3070 3069 3071 3075 3078 3082 3076 3087 3092 3097 3101 3106 3110 3113 3116 3121 3126 3131 3135 3140 3143 3148 3151 3156 3159 3162 3164 3167 3169 3171 3173 3175 3177 3178 3180 3180 3181 3180 3181 3182 3183 3182 3179 3179 3178 3177 3175 3176
3065 3062 3064 3067 3069 3073 3074 3077 3081 3088 3093 3096 3102 3105 3110 3113 3117 3122 3128 3133 3137 3141 3145 3150 3154 3156 3160 3162 3165 3167 3169 3171 3174 3175 3176 3178 3179 3179 3178 3179 3178 3176 3177 3179 3177 3176 3174 3172 3169
3058 3060 3060 3062 3065 3066 3069 3073 3077 3080 3083 3089 3095 3101 3105 3107 3114 3119 3125 3130 3135 3140 3143 3147 3151 3154 3158 3161 3163 3164 3167 3169 3172 3174 3176 3176 3177 3177 3177 3177 3177 3176 3174 3172 3174 3174 3168 3166 3163
3059 3059 3058 3059 3061 3063 3064 3068 3072 3076 3080 3085 3091 3096 3100 3105 3109 3115 3122 3127 3133 3138 3142 3146 3149 3152 3156 3158 3161 3163 3164 3168 3171 3173 3174 3175 3176 3176 3176 3176 3175 3173 3171 3166 3169 3167 3163 3160 3157
3058 3057 3057 3058 3058 3060 3060 3061 3066 3070 3074 3080 3086 3091 3095 3102 3108 3114 3119 3126 3132 3137 3140 3143 3146 3150 3153 3156 3159 3161 3164 3167 3168 3170 3170 3171 3171 3171 3170 3169 3165 3166 3165 3161 3163 3160 3157 3155 3151
3054 3055 3055 3056 3055 3056 3057 3055 3057 3060 3066 3072 3078 3085 3091 3097 3105 3112 3117 3123 3130 3134 3138 3141 3144 3149 3152 3155 3157 3160 3162 3164 3165 3165 3166 3167 3168 3167 3167 3162 3156 3158 3159 3161 3159 3154 3152 3151 3148
3051 3052 3052 3053 3054 3050 3051 3043 3044 3053 3058 3064 3071 3076 3086 3094 3101 3109 3115 3122 3127 3133 3136 3140 3143 3147 3151 3154 3156 3158 3159 3160 3161 3160 3163 3162 3164 3162 3161 3157 3153 3151 3156 3157 3153 3150 3149 3148 3146
3050 3049 3050 3050 3051 3050 3048 3051 3037 3044 3052 3059 3065 3072 3082 3090 3097 3105 3112 3118 3123 3131 3136 3140 3142 3147 3149 3152 3153 3155 3156 3155 3156 3157 3159 3159 3159 3157 3157 3155 3155 3153 3154 3153 3148 3146 3146 3144 3142
3048 3049 3049 3049 3049 3045 3043 3045 3032 3037 3043 3051 3061 3068 3077 3085 3094 3101 3109 3115 3121 3127 3133 3138 3140 3146 3148 3149 3151 3152 3153 3154 3155 3155 3157 3156 3156 3155 3153 3155 3150 3150 3149 3146 3144 3143 3142 3139 3138
3048 3049 3043 3043 3040 3032 3034 3041 3033 3034 3040 3048 3056 3064 3073 3082 3091 3097 3103 3111 3117 3123 3129 3136 3140 3144 3145 3148 3149 3150 3152 3153 3153 3155 3155 3155 3154 3154 3154 3150 3148 3146 3144 3143 3142 3141 3139 3138 3134
3045 3046 3035 3039 3031 3026 3032 3030 3027 3032 3040 3047 3056 3064 3071 3080 3089 3093 3101 3108 3115 3122 3129 3133 3138 3140 3142 3146 3147 3149 3150 3151 3152 3152 3152 3153 3153 3151 3148 3146 3145 3143 3142 3141 3140 3139 3137 3134 3131
3042 3043 3043 3042 3031 3023 3021 3026 3026 3030 3035 3041 3050 3059 3067 3076 3083 3090 3098 3106 3114 3121 3127 3131 3135 3138 3143 3144 3145 3147 3149 3150 3149 3151 3151 3150 3147 3145 3145 3144 3143 3142 3141 3140 3137 3135 3133 3131 3129
3039 3043 3044 3043 3032 3022 3015 3016 3020 3024 3030 3036 3045 3054 3062 3070 3078 3088 3096 3105 3113 3119 3123 3128 3133 3137 3140 3142 3144 3146 3148 3148 3149 3148 3148 3146 3145 3145 3143 3142 3140 3140 3138 3137 3135 3134 3133 3130 3128
3036 3036 3038 3036 3031 3019 3011 3011 3017 3020 3026 3032 3041 3051 3055 3063 3075 3084 3092 3103 3110 3116 3121 3127 3132 3136 3139 3141 3144 3146 3147 3147 3146 3145 3145 3144 3143 3143 3141 3141 3139 3139 3137 3135 3134 3133 3131 3129 3128
3027 3028 3031 3031 3026 3025 3017 3008 3011 3018 3023 3029 3039 3048 3052 3061 3070 3079 3092 3099 3107 3114 3120 3126 3130 3133 3137 3139 3142 3143 3144 3144 3144 3142 3142 3142 3141 3141 3140 3140 3138 3136 3135 3134 3133 3132 3131 3130 3127